FLOCK 3P-39

Last updated on Wed Feb 14 2018 16:20:33 GMT+0000 (Coordinated Universal Time)

1 42038U 17008CU 18045.39819401 .00001729 00000-0 74493-4 0 9996 2 42038 97.4653 110.9864 0009507 89.1997 271.0329 15.23915983 55309
UTC large
Height (km)
Speed (km/s)
/
Latitude / Longitude
Inclination (degrees)
Orbital Period (minutes)
Azimuth
Elevation
Range (km)
Doppler Factor

Next 0 passes for location: London (51.5072 / 0.1276)

Sorry there are no passes over London.